Presure
165 160 156 153 156 160 152 142 142 149 162 149 165 150 141 146 160 169 158 173 170 161 169 171 173 149 152 153 171 164 142 185 174 170 182 203 230 246 223 215 201 215 216 199 201 215 220
144 162 165 164 164 153 155 159 142 160 150 151 140 147 149 159 134 138 158 150 169 160 147 165 155 150 164 151 165 168 135 154 163 158 185 168 184 203 215 237 236 218 199 201 208 212 218
145 154 147 171 142 160 159 167 164 150 151 154 139 145 142 161 134 170 131 155 137 139 170 152 162 169 147 144 159 169 170 170 142 160 143 137 164 157 161 174 207 214 221 236 223 202 189
151 146 157 150 158 198 163 168 163 169 159 147 162 148 135 147 159 154 160 163 146 141 146 152 157 163 161 160 144 147 157 151 168 161 134 173 177 148 176 186 186 187 193 200 207 211 222
145 148 151 157 144 159 180 158 172 151 150 145 148 143 142 156 145 150 155 158 156 161 137 127 144 159 165 155 153 154 157 154 162 147 158 177 138 145 175 169 155 157 188 183 185 179 190
146 147 151 151 158 144 153 149 146 153 146 157 144 142 156 142 154 150 155 137 153 158 153 155 135 163 149 167 154 159 159 155 156 162 166 160 160 163 169 168 169 174 155 161 186 186 177
135 151 149 148 140 154 149 144 145 143 145 149 148 148 147 149 153 167 163 159 152 161 152 158 147 156 159 152 167 171 153 153 166 147 143 167 165 172 163 185 165 176 170 140 152 177 184
154 138 150 150 153 156 137 153 147 151 150 150 151 153 156 154 151 151 152 151 145 148 156 153 152 141 165 160 159 154 146 142 142 164 153 159 148 165 161 163 167 177 166 192 171 183 188
152 148 151 141 153 151 157 151 149 152 156 145 144 150 154 142 143 147 151 151 144 143 153 154 150 151 134 166 151 169 171 170 165 138 137 155 171 149 149 170 162 165 164 181 164 186 184
145 146 145 152 150 148 148 148 145 152 143 133 133 137 140 141 145 151 157 158 152 134 157 157 154 164 169 163 162 151 167 148 173 166 153 142 173 161 157 159 156 159 158 172 178 170 184
157 154 141 143 149 149 145 151 154 144 150 151 150 151 144 146 142 140 149 158 157 158 156 150 153 164 159 154 157 159 163 171 168 165 169 160 158 144 165 152 168 165 164 156 161 180 187
143 153 153 159 148 152 148 143 149 157 142 149 146 142 143 144 155 160 161 157 156 141 144 166 143 167 157 152 155 150 157 160 162 154 165 168 150 163 171 154 176 162 145 155 165 177 184
160 151 162 151 163 151 153 156 144 148 148 147 149 140 142 150 149 139 150 148 149 156 163 156 149 167 157 165 160 154 162 151 158 159 165 160 171 165 167 152 148 156 169 172 160 181 180
153 168 166 161 161 158 159 154 156 159 150 145 143 147 145 149 157 152 153 161 155 154 162 158 156 158 153 151 148 160 164 161 155 159 161 162 163 168 165 161 160 169 172 163 180 190 186
141 176 163 172 158 174 163 158 145 148 152 148 148 151 155 152 158 158 158 156 150 160 155 159 156 156 149 143 147 158 161 162 165 162 152 162 169 166 160 172 173 175 168 177 164 189 191
159 177 175 159 170 170 169 169 158 151 152 155 160 157 153 157 159 160 160 162 151 157 153 158 154 146 147 158 148 161 159 156 157 158 159 169 167 157 175 169 178 176 180 189 186 198 197
165 153 161 179 160 163 163 162 167 167 170 167 151 145 141 148 150 151 148 147 148 156 156 150 149 149 158 167 167 166 164 168 162 170 170 169 172 176 170 176 170 178 193 199 197 227 206
163 159 182 148 171 165 171 175 156 168 163 155 147 162 156 158 155 144 153 154 159 161 164 163 166 168 173 136 175 141 164 170 168 176 165 176 175 170 184 181 179 188 214 197 195 226 205
178 166 182 172 172 176 162 178 160 157 174 165 170 174 162 155 162 157 167 162 172 168 170 171 175 176 178 166 177 178 168 171 170 168 174 186 187 176 190 185 214 211 185 198 196 208 210
172 176 169 172 176 172 175 161 164 168 172 172 180 176 156 175 176 174 170 169 176 177 171 177 175 169 178 183 176 185 189 175 180 172 181 179 186 194 191 205 204 189 190 196 194 209 206
185 191 183 177 175 174 166 167 153 172 169 172 162 163 165 187 160 167 180 176 168 173 163 169 183 176 169 182 176 170 177 175 185 184 188 188 194 191 188 205 204 214 185 192 207 212 203
162 188 191 189 193 178 168 174 170 157 165 180 168 174 166 177 176 170 184 193 183 168 181 168 173 181 168 175 176 179 190 189 180 186 187 187 200 203 185 209 230 202 219 219 215 235 220
184 180 175 168 181 194 168 163 167 171 167 167 175 169 179 210 175 205 179 185 183 185 177 180 179 169 170 175 187 182 178 177 184 185 187 185 218 218 214 191 232 221 220 259 248 213 228
167 186 187 185 190 189 180 170 174 176 181 168 182 166 167 180 194 183 182 178 176 182 180 168 171 170 175 173 177 176 188 194 194 214 195 202 201 203 246 234 249 233 263 275 277 264 269
188 178 185 177 186 186 188 180 180 174 167 193 190 187 186 185 187 182 185 177 178 172 171 177 184 186 184 182 190 188 185 202 191 214 198 227 219 282 280 231 291 294 287 285 288 292 297
194 183 191 202 189 193 167 179 177 178 190 191 189 185 178 170 171 188 178 190 192 180 185 180 190 195 187 175 204 220 210 187 195 252 259 242 230 292 286 290 288 287 287 301 289 273 287
208 201 197 201 190 189 177 179 180 173 182 173 191 200 208 187 189 188 186 178 181 178 181 183 171 190 199 208 192 204 213 224 247 232 213 285 293 285 277 283 281 261 277 276 286 278 267
214 189 197 200 197 195 194 190 186 186 180 184 199 197 197 186 192 183 192 180 177 184 203 213 216 221 199 201 191 237 200 224 234 265 270 267 273 273 292 291 285 286 280 273 270 265 264
196 201 202 195 200 202 190 184 185 190 183 182 196 193 189 176 208 216 216 190 203 185 192 183 202 210 201 208 207 233 242 241 239 279 269 267 259 268 260 283 269 265 262 260 254 258 260
Wind_Speed
38 41 42 39 39 37 33 32 29 30 31 25 27 24 25 25 25 17 25 16 17 24 19 20 23 29 30 28 28 28 14 23 26 19 20 17 15 10 9 13 19 16 21 29 34 35 36
37 34 41 43 43 39 37 37 32 33 30 28 25 28 27 28 28 29 24 25 20 23 25 17 27 31 26 30 23 24 15 26 17 14 21 20 19 12 13 12 12 15 22 26 27 30 33
39 35 35 38 37 39 37 36 38 33 33 33 29 27 27 32 31 26 30 23 28 28 21 26 21 23 31 29 25 24 26 19 18 28 17 22 23 13 15 15 9 6 9 17 23 31 41
39 40 37 39 38 37 39 38 37 36 36 31 36 32 30 30 33 31 28 27 29 28 27 25 25 23 21 22 30 33 27 29 23 28 24 15 19 19 17 22 23 26 22 17 11 12 18
43 42 40 38 41 38 39 37 36 35 34 33 33 34 34 35 32 32 32 32 28 23 31 31 32 27 23 28 25 27 25 28 24 28 30 17 28 25 17 21 26 22 19 24 29 31 30
47 47 45 42 40 43 41 39 38 38 37 39 37 38 39 37 38 37 36 34 32 29 29 26 34 28 32 28 29 28 24 29 29 23 20 27 27 28 19 24 18 23 34 26 18 26 36
50 50 48 47 46 43 44 42 41 41 40 41 40 41 39 41 42 41 40 39 36 39 33 32 31 31 31 32 32 33 34 32 31 36 36 23 30 21 31 37 31 25 25 37 42 23 21
57 54 53 51 50 48 47 46 45 45 45 45 45 45 45 43 40 39 39 42 39 41 42 40 37 40 39 33 33 36 39 40 40 35 41 37 39 36 33 34 35 38 40 43 33 33 35
59 58 59 54 52 50 49 48 48 48 49 47 48 49 49 43 44 44 45 45 43 44 47 45 43 44 45 45 40 40 42 38 40 43 43 41 41 48 49 43 42 42 44 45 42 41 37
62 62 60 61 57 51 51 52 50 51 52 52 49 49 50 48 49 50 50 50 49 46 49 48 49 52 52 48 43 44 46 45 43 43 50 53 44 49 53 51 50 50 50 45 48 44 44
73 68 65 62 60 56 54 56 55 56 56 57 57 57 55 52 51 48 52 54 52 53 52 52 53 53 51 49 48 47 52 49 49 48 49 49 56 57 54 60 54 54 54 55 56 54 50
70 74 71 74 64 62 60 57 58 59 59 61 62 60 60 57 59 58 57 55 56 55 56 59 56 59 54 54 53 52 54 52 50 52 54 58 60 57 63 59 68 61 61 63 58 62 56
82 77 81 72 76 65 66 65 60 63 65 66 67 66 63 63 60 57 58 58 59 61 60 60 60 63 59 64 60 59 64 57 60 59 63 61 69 67 67 68 70 68 72 70 64 73 66
78 83 85 83 80 69 71 66 64 68 68 69 71 75 70 68 68 66 64 66 65 64 66 64 64 64 60 59 60 71 75 71 66 67 69 70 74 75 73 71 72 83 84 80 83 81 74
75 87 82 86 78 80 74 72 68 68 71 73 75 78 77 74 75 74 71 69 67 70 68 73 70 68 63 63 65 75 79 80 81 78 70 77 82 81 81 91 91 90 87 94 81 86 78
85 91 89 82 87 82 79 84 78 75 73 75 80 78 78 81 82 81 79 79 74 76 72 77 73 67 69 80 72 85 84 80 82 82 83 88 82 80 92 92 96 97 99 99 98 97 87
101 74 81 91 84 85 80 84 88 81 84 82 75 74 76 78 80 80 78 76 77 82 81 76 76 76 87 92 91 89 90 92 90 95 93 93 92 92 93 98 98 102 103 100 99 101 94
102 71 96 74 94 93 96 97 74 86 80 73 73 83 86 88 88 80 91 88 92 93 92 93 95 94 92 71 90 78 90 95 93 95 93 100 94 91 101 104 101 103 101 96 97 94 89
106 96 101 98 98 97 92 102 84 76 89 81 87 88 87 85 91 91 95 94 99 96 96 96 95 93 92 89 96 96 94 94 94 92 96 107 107 99 109 103 113 100 93 97 99 102 92
107 102 98 98 103 98 99 92 94 94 92 87 95 95 86 97 97 94 93 93 97 96 93 94 96 92 96 95 94 101 104 100 106 100 112 107 112 119 105 116 112 94 93 101 103 105 101
108 98 110 100 105 100 91 91 83 99 97 100 84 87 90 103 81 90 105 103 98 99 88 98 108 99 92 105 103 95 105 102 116 115 120 118 123 118 111 123 116 107 95 106 114 110 104
96 110 110 108 110 109 97 105 99 79 93 109 101 106 96 111 111 99 108 107 112 98 112 99 101 109 97 106 109 113 117 119 116 121 124 126 134 130 111 117 107 108 102 109 108 105 108
111 111 112 102 106 107 96 88 95 101 95 97 105 98 104 98 102 104 113 101 110 109 108 108 111 103 104 109 117 116 111 109 121 122 128 118 117 116 112 108 108 103 107 103 104 109 110
98 113 115 111 108 108 112 101 103 109 114 96 113 88 92 114 105 108 110 99 107 108 111 102 108 106 114 109 110 111 125 130 128 122 129 125 127 124 112 110 101 100 95 94 97 101 102
110 110 117 105 111 108 113 112 109 105 93 102 98 112 115 114 114 117 113 111 112 111 107 116 120 123 122 118 126 124 116 130 115 117 126 121 121 94 93 114 83 75 79 82 81 77 79
116 106 110 108 113 106 97 108 110 113 106 110 112 109 108 102 101 112 108 114 116 114 112 106 118 125 117 101 132 118 119 112 122 106 102 108 113 84 85 83 78 72 72 72 74 73 74
103 104 105 109 112 115 110 111 111 105 113 109 116 112 110 113 116 115 109 102 103 103 109 110 97 120 126 116 117 117 120 122 105 112 118 90 84 80 80 78 73 78 72 71 67 69 74
95 105 104 105 108 111 113 117 117 115 113 115 112 113 117 109 118 108 117 105 99 111 109 118 118 117 113 119 109 109 109 112 106 97 90 89 88 82 79 76 69 66 67 67 67 67 68
100 100 103 106 106 106 110 112 113 114 112 109 114 112 110 94 110 104 106 112 121 104 113 103 121 123 122 120 121 112 103 101 101 92 90 87 87 85 81 76 75 71 69 68 70 70 69
Wind_Direction
250 256 255 260 263 264 265 268 270 275 278 280 284 287 292 296 301 306 303 323 323 310 334 355 10 326 328 336 352 349 285 13 358 1 8 19 23 336 305 273 260 259 253 244 238 236 241
251 252 255 258 260 262 266 266 266 271 276 279 275 282 286 287 288 294 299 303 324 306 313 327 315 318 337 329 345 351 268 339 340 328 12 347 353 11 29 359 308 281 261 258 254 250 248
253 255 255 260 258 266 265 263 263 269 275 278 273 279 276 295 280 301 288 295 292 301 320 307 320 332 315 317 331 341 349 345 302 330 257 272 331 300 318 323 332 1 336 293 276 260 251
252 254 257 258 263 266 265 265 263 260 267 271 277 277 268 291 295 290 295 300 287 289 301 306 309 317 316 319 309 311 322 318 334 322 261 341 348 272 336 345 328 320 303 285 279 297 293
249 252 255 259 259 265 261 263 258 266 268 272 275 276 275 289 282 286 293 297 295 305 286 287 297 304 314 312 303 306 309 308 317 305 310 358 273 296 347 318 290 276 351 296 292 286 276
252 252 256 255 259 259 261 264 266 268 269 273 273 273 282 275 288 287 291 273 296 296 292 298 290 311 293 313 296 299 301 302 301 303 308 297 300 305 295 319 283 293 283 289 322 303 281
251 255 255 256 256 258 260 262 264 267 270 274 275 277 278 283 287 292 298 296 292 300 292 294 286 292 299 288 308 314 293 292 302 295 294 298 310 303 286 333 282 315 276 264 286 287 307
256 253 257 257 258 258 263 262 265 267 270 273 274 277 279 281 284 288 291 290 288 295 299 294 293 282 309 298 297 292 294 291 292 293 290 288 292 308 289 295 293 312 286 325 274 311 316
257 258 258 257 259 261 260 262 265 266 268 270 274 277 279 277 280 283 285 284 285 288 292 292 290 294 284 307 291 312 313 304 301 287 288 299 309 289 289 307 287 287 288 314 278 315 307
252 254 256 260 259 261 263 264 264 267 266 264 267 271 273 275 279 281 285 286 286 281 291 294 292 302 303 301 300 290 309 292 310 296 282 289 313 283 284 285 287 287 285 301 307 294 306
255 256 253 254 258 258 259 263 265 263 266 268 271 273 270 273 273 275 283 288 288 290 291 288 292 294 291 294 294 298 305 308 305 301 304 284 300 289 296 286 302 295 289 284 293 305 306
252 255 255 257 254 259 259 260 265 266 265 268 270 270 272 274 279 283 286 288 288 281 284 291 285 294 291 288 292 286 295 298 296 282 300 305 281 296 307 289 309 288 285 283 289 300 305
253 255 258 258 259 257 261 263 259 265 266 268 268 271 273 275 278 276 281 280 282 287 291 286 287 296 290 301 298 292 299 287 296 297 302 294 306 299 301 287 283 285 299 296 286 301 295
253 255 257 259 260 259 261 264 265 266 265 266 269 271 273 277 278 279 280 286 283 284 292 287 287 292 286 286 285 300 302 298 291 296 299 301 301 304 299 293 290 301 299 291 300 299 296
253 254 258 258 259 261 260 261 257 260 264 265 267 272 277 279 281 281 282 281 280 289 287 291 290 290 285 281 286 297 298 298 299 296 288 298 303 301 296 303 301 300 296 298 289 297 295
257 257 254 262 261 261 262 263 260 261 262 267 269 274 278 280 282 283 286 286 284 287 286 289 287 284 286 293 287 294 294 292 293 293 294 298 299 291 301 298 301 300 299 299 296 298 294
258 254 261 255 265 263 261 260 263 264 266 266 265 269 273 276 280 283 282 281 283 285 287 285 284 285 289 290 291 291 291 294 294 297 297 298 299 301 299 301 298 298 302 298 297 299 296
259 257 257 258 259 262 263 263 258 263 264 263 265 267 270 272 273 277 278 281 281 283 284 284 284 284 285 288 286 290 289 292 291 295 294 298 298 297 300 299 296 302 298 299 296 298 297
253 261 256 258 258 255 263 263 266 263 268 266 268 270 268 268 271 273 275 277 278 280 281 284 285 287 289 285 290 291 289 291 291 290 297 300 302 296 300 296 305 302 295 299 300 301 302
251 254 256 258 258 261 261 265 267 269 270 272 272 274 273 276 276 277 278 278 281 283 284 287 288 286 289 292 291 298 300 298 300 296 300 299 300 302 300 305 303 298 298 300 297 299 295
248 250 252 255 258 259 261 263 265 269 271 273 273 272 275 277 274 280 283 285 284 287 282 290 293 294 290 298 298 295 299 299 300 300 301 302 304 302 302 303 302 300 297 297 297 294 292
254 248 249 252 253 256 262 262 266 266 270 272 275 275 276 279 281 281 284 280 285 288 290 290 292 293 294 297 297 297 299 300 300 302 302 302 300 298 299 297 293 297 293 291 291 288 290
247 250 253 258 256 255 263 264 268 267 271 272 273 275 278 279 277 279 280 281 282 284 288 289 291 293 295 295 296 297 297 298 300 299 298 297 295 296 296 295 295 296 293 286 287 288 287
253 249 250 253 254 255 259 265 266 268 269 272 272 277 278 281 280 282 283 283 286 286 287 288 290 293 293 293 295 295 295 297 297 298 297 297 295 294 297 295 295 294 286 282 278 279 281
244 252 250 256 255 256 257 261 264 266 271 271 273 274 275 278 278 280 280 282 282 286 287 288 288 289 291 293 294 296 294 295 295 298 296 298 296 297 296 297 293 294 291 288 287 286 283
243 249 251 250 253 253 263 260 263 264 267 268 270 272 274 276 279 278 280 279 280 282 285 286 289 291 291 290 294 294 294 294 295 299 297 297 299 301 300 298 297 294 291 287 285 286 285
242 244 247 247 252 252 257 258 260 265 266 269 270 273 274 275 277 278 280 282 283 285 287 289 286 291 291 293 293 296 297 299 299 298 298 309 309 307 301 299 299 297 295 293 291 287 286
245 244 244 245 248 251 253 255 259 262 265 268 270 271 273 277 278 280 281 282 285 285 286 287 289 291 291 293 295 298 297 299 301 308 309 307 309 307 309 305 303 299 296 294 292 290 290
243 245 247 247 251 253 254 255 259 262 265 270 270 271 274 278 278 280 282 283 284 286 289 291 293 292 294 295 298 298 300 301 302 310 309 307 306 306 304 308 300 298 296 294 292 291 290